Starlink 5174

operational
NORAD ID: 54067 Int'l Des: 2022-136 Owner: SPXS Country: US Constellation: starlink
LEOCIRCULAR

关于 Starlink 5174

正在加载描述...

实时位置

正在加载3D地球...

即将过境

高度历史

Altitude vs Time

uPlot chart will show altitude changes over time

两行轨道根数

1 54067U 22136S 25350.73379298 .00001378 00000-0 10467-3 0 9999
2 54067 53.2185 356.2980 0001291 87.7079 272.4061 15.08839113174320
Epoch: Dec 16, 2025 • Age: 15 hours

当前状态

高度 547.4 km
速度 7.59 km/s
星下点 -24.66°S, 25.6°W
发射日期 Oct 20, 2022
运行时间 3.1 years
类型 internet

技术详情

分类 Payload
质量 305.00 kg
干质量 290.00 kg
总质量 305.00 kg
长度 0.20 m
直径 2.80 m
跨度 9.00 m
形状 Box + pan
制造商 SPXS
平台类型 Starlink
阶段状态 In Orbit
所有者/国家 SPXS/US

大型星座

Loading constellations...